THORAD DELTA 1 DEB, 8169

Orbit data source: Space-Track

THORAD DELTA 1 DEB, 8169 is space debris in SSO originally from a launch on Fri, 15 Nov 1974 UTC launched from the Air Force Western Test Range (AFWTR). Debris objects in space refer to the collection of defunct objects orbiting the Earth. Examples of debris include non-operational satellites, rocket bodies, and fragments generated from explosions, collisions, or faulty payload assembly.

Loading next visibility...
Identifier
8169, 1974-089AK
Orbit
SSO
Country
Flag of USUS
Related business
Manufacturer
Unknown
Mission
Spacecraft
Bus & Motor
Unknown
Mass
Unknown
Launch date (UTC)
1974-11-15 (51 years ago)
Launch vehicle
Unknown
Launch site
Air Force Western Test Range (AFWTR)
Object type
Payload
Rocket body
Debris
Shape & HBR
Unknown
Radar Cross Section
Small (<0.1 m²)

Expand to show TLE details & history
Last TLE update: 11 hours ago

TLE from 11 hours ago
0 THORAD DELTA 1 DEB
1 08169U 74089AK  25242.84776850  .00000714  00000-0  26677-2 0  9994
2 08169 102.5186 190.6974 0143388   8.7719  56.9994 12.93677409363220
Epoch: 2025-08-30T20:20Z
TLE epoch observation values (Epoch: 2025-08-30T20:20:47.198Z)
Latitude
64.20805°
Longitude
-120.97862°
Altitude
1,239.078 km
Speed
7.269 km/s
True Right ascension
10h 53m 58s
True Declination
64° 04' 54"
Sunlit
Object was in daylight at epoch
Visualization orbit readout
Latitude
Unknown
Longitude
Unknown
Altitude
Unknown
Speed
Unknown
Apparent Right ascension
Unknown
Apparent Declination
Unknown
Sunlit
N/A
Visualization observer readout
Local Sidereal Time
22:51:30
Azimuth
Unknown
Elevation
Unknown
Doppler factor
Unknown
Orbital elements
Apogee altitude
1,394.373 km
Perigee altitude
1,174.627 km
Semi-major axis
7,662.637 km
Eccentricity
0.01434
Inclination
102.5186°
RAAN
190.6974°
Arg. of periapsis
8.7719°
True anomaly
58.39086°
Mean anomaly
56.9994°
Eccentric anomaly
57.69378°
Mean motion
3.23576 °/min
Orbital period
111.26 mins
BSTAR
0.0026677
Loading maneuver chart data...
Computing Atmospheric mass density...
Loading historical data...
Loading historical data...
Loading historical data...
Loading historical data...
Loading historical data...
Loading historical data...
Loading historical data...

Documentation

Showing up to 5 results
|